Regional Weather Roundup
Issued by NWS Burlington, VT

Home | Current Version | Previous Version | Text Only | Print | Product List | Glossary On
Versions: 1 2 3 4 5 6 7 8 9 10 11 12 13 14 15 16 17 18 19 20 21 22 23 24 25 26 27 28 29 30 31 32 33 34 35 36 37 38 39 40 41 42 43 44 45 46 47 48 49 50
000
ASUS41 KBTV 051030
RWRBTV
VERMONT REGIONAL WEATHER ROUNDUP
NATIONAL WEATHER SERVICE BURLINGTON VT
600 AM EDT SAT SEP 05 2015

NOTE: "FAIR" INDICATES FEW OR NO CLOUDS BELOW 12,000 FEET WITH NO
SIGNIFICANT WEATHER AND/OR OBSTRUCTIONS TO VISIBILITY.

* THESE REPORTS ARE NOT UNDER NWS QUALITY CONTROL AND/OR DO NOT
  REPORT WEATHER SUCH AS PRECIPITATION AND FOG.

VTZ001>019-051100-
_____VERMONT_____


CITY           SKY/WX    TMP DP  RH WIND       PRES   REMARKS
BURLINGTON     PTCLDY    58  54  86 E3        30.26R
MONTPELIER     FOG       53  52  96 CALM      30.34R VSB 1/4
MORRISVILLE    FOG       49  47  93 CALM      30.32R VSB 3/4
ST. JOHNSBURY*   N/A     54  52  93 MISG      30.29R
LYNDONVILLE*   FOG       49  49  98 CALM      30.32R VSB 1/4
MIDDLEBURY*    FAIR      55  55 100 CALM      30.28R
RUTLAND*       CLEAR     55  37  50 SE10      30.30R
SPRINGFIELD    FOG       54  53  97 CALM      30.33R VSB 1/4
HIGHGATE*      FAIR      55  52  90 CALM      30.25S
NEWPORT*       FAIR      49  49  99 CALM      30.30R
BENNINGTON     PTCLDY    54  52  93 CALM      30.28R
GALLUP MILLS*    N/A     46 N/A N/A MISG        N/A
MT. MANSFIELD*   N/A     55 N/A N/A SW3         N/A

_____LAKE CHAMPLAIN_____


CITY           SKY/WX    TMP DP  RH WIND       PRES   REMARKS
COLCHESTER RF*   N/A     64  61  88 SE2         N/A
DIAMOND ISL*     N/A     61  59  94 SE5         N/A

$$

NYZ007-026>031-035-052-083-051100-
_____NORTHERN NEW YORK_____


CITY           SKY/WX    TMP DP  RH WIND       PRES   REMARKS
PLATTSBURGH    CLEAR     52  51  97 CALM      30.25R
SARANAC LAKE   CLEAR     43  41  93 CALM      30.27R
MASSENA        CLEAR     56  51  84 NE6       30.25R
OGDENSBURG*    CLEAR     55  54  94 E3        30.23R
POTSDAM*       CLEAR     57  55  94 E5        30.24R
STARK FALLS*     N/A     63 N/A N/A SE1         N/A
WATERTOWN      CLEAR     61  59  93 E5        30.19R FOG
FT DRUM        CLEAR     64  61  88 SE10      30.21R
ALBANY         PTCLDY    62  55  77 CALM      30.26R
GLENS FALLS    PTCLDY    56  53  90 N3        30.27R

$$
NHZ002-005-011-051100-
_____NEW HAMPSHIRE_____


CITY           SKY/WX    TMP DP  RH WIND       PRES   REMARKS
LEBANON        FOG       55  53  93 E5        30.31R VSB 1/2
KEENE          CLEAR     48  43  81 CALM      30.32R
MT WASHINGTON  PTCLDY    48  39  71 N15         N/A
PLYMOUTH       FOG       51  50  97 CALM      30.31R VSB 1/4
WHITEFIELD     FOG       46  44  93 CALM      30.32R VSB 3/4

$$

_____REGIONAL QUEBEC LOCATIONS_____


CITY           SKY/WX    TMP DP  RH WIND       PRES   REMARKS
MONTREAL       PTCLDY    55  52  88 N5        30.25R
QUEBEC CITY    PTCLDY    54  50  87 N6        30.26R
SHERBROOKE     CLEAR     48  46  93 E3        30.28R

_____REGIONAL ONTARIO LOCATIONS_____


CITY           SKY/WX    TMP DP  RH WIND       PRES   REMARKS
OTTAWA         PTCLDY    55  50  82 E7        30.24R

______KEY______
VSB  - VISIBILITY IN MILES
WCI  - WIND CHILL INDEX
HX   - HEAT INDEX
$$
NNNN



USA.gov is the U.S. government's official web portal to all federal, state and local government web resources and services.